| time (UTC) | temp F | wind direction | speed MPH | gust MPH | rain 1hr in | rain 24hr in | rain mn in | humidity % | barometer mb |
| 20260505173055 | 51 | 201 | 4.0 | 10.0 | 0.00 | 0.00 | 0.00 | 98 | 1018.7 |
| 20260505172543 | 51 | 221 | 3.0 | 8.0 | 0.00 | 0.00 | 0.00 | 98 | 1018.8 |
| 20260505172042 | 51 | 238 | 3.0 | 8.0 | 0.00 | 0.00 | 0.00 | 98 | 1018.8 |
| 20260505171550 | 51 | 241 | 2.0 | 7.0 | 0.00 | 0.00 | 0.00 | 98 | 1018.8 |
| 20260505171042 | 51 | 243 | 3.0 | 8.0 | 0.00 | 0.00 | 0.00 | 98 | 1018.8 |
| 20260505170540 | 50 | 265 | 3.0 | 9.0 | 0.00 | 0.00 | 0.00 | 98 | 1018.8 |
| 20260505170106 | 50 | 228 | 4.0 | 9.0 | 0.00 | 0.00 | 0.00 | 98 | 1018.8 |
| 20260505165543 | 50 | 265 | 4.0 | 9.0 | 0.00 | 0.00 | 0.00 | 98 | 1018.8 |
| 20260505165043 | 50 | 268 | 4.0 | 12.0 | 0.00 | 0.00 | 0.00 | 98 | 1018.8 |
| 20260505164550 | 50 | 208 | 2.0 | 12.0 | 0.00 | 0.00 | 0.00 | 97 | 1018.8 |
| 20260505164042 | 50 | 250 | 5.0 | 12.0 | 0.00 | 0.00 | 0.00 | 98 | 1018.7 |
| 20260505163542 | 50 | 238 | 3.0 | 7.0 | 0.00 | 0.00 | 0.00 | 98 | 1018.6 |
| 20260505163053 | 50 | 225 | 3.0 | 11.0 | 0.00 | 0.00 | 0.00 | 98 | 1018.7 |
| 20260505162542 | 50 | 230 | 4.0 | 11.0 | 0.00 | 0.00 | 0.00 | 97 | 1018.7 |
| 20260505162042 | 50 | 178 | 3.0 | 7.0 | 0.00 | 0.00 | 0.00 | 98 | 1018.7 |
| 20260505161612 | 50 | 219 | 2.0 | 9.0 | 0.00 | 0.00 | 0.00 | 97 | 1018.6 |
| 20260505161042 | 50 | 242 | 2.0 | 10.0 | 0.00 | 0.00 | 0.00 | 97 | 1018.6 |
| 20260505160542 | 50 | 196 | 3.0 | 10.0 | 0.00 | 0.00 | 0.00 | 98 | 1018.5 |
| 20260505153100 | 49 | 221 | 4.0 | 10.0 | 0.00 | 0.00 | 0.00 | 97 | 1018.3 |
| 20260505152540 | 49 | 209 | 4.0 | 11.0 | 0.00 | 0.00 | 0.00 | 97 | 1018.3 |
| 20260505152042 | 49 | 226 | 4.0 | 11.0 | 0.00 | 0.00 | 0.00 | 97 | 1018.2 |
| 20260505151605 | 49 | 215 | 5.0 | 11.0 | 0.00 | 0.00 | 0.00 | 97 | 1018.2 |
| 20260505151040 | 49 | 232 | 5.0 | 12.0 | 0.00 | 0.00 | 0.00 | 97 | 1018.2 |
| 20260505150542 | 50 | 232 | 5.0 | 12.0 | 0.00 | 0.00 | 0.00 | 97 | 1018.1 |
| 20260505140540 | 49 | 193 | 3.0 | 8.0 | 0.00 | 0.00 | 0.00 | 97 | 1017.9 |
| 20260505124550 | 48 | 232 | 3.0 | 5.0 | 0.00 | 0.00 | 0.00 | 97 | 1017.5 |
| 20260505124041 | 48 | 247 | 2.0 | 5.0 | 0.00 | 0.00 | 0.00 | 97 | 1017.5 |
| 20260505123541 | 48 | 239 | 2.0 | 5.0 | 0.00 | 0.00 | 0.00 | 97 | 1017.6 |
| 20260505123051 | 48 | 259 | 0.0 | 4.0 | 0.00 | 0.00 | 0.00 | 97 | 1017.7 |
| 20260505122544 | 48 | 0 | 1.0 | 4.0 | 0.00 | 0.00 | 0.00 | 97 | 1017.6 |
| 20260505122042 | 48 | 108 | 2.0 | 4.0 | 0.00 | 0.00 | 0.00 | 97 | 1017.7 |
| 20260505121608 | 48 | 217 | 2.0 | 4.0 | 0.00 | 0.00 | 0.00 | 97 | 1017.7 |
| 20260505121039 | 48 | 255 | 1.0 | 3.0 | 0.00 | 0.00 | 0.00 | 97 | 1017.7 |
| 20260505120541 | 48 | 0 | 0.0 | 3.0 | 0.00 | 0.00 | 0.00 | 97 | 1017.7 |
| 20260505120048 | 48 | 205 | 1.0 | 4.0 | 0.00 | 0.00 | 0.00 | 97 | 1017.8 |
| 20260505115546 | 48 | 239 | 1.0 | 4.0 | 0.00 | 0.00 | 0.00 | 97 | 1017.7 |
| 20260505115041 | 48 | 162 | 1.0 | 4.0 | 0.00 | 0.00 | 0.00 | 97 | 1017.7 |
| 20260505114554 | 48 | 205 | 1.0 | 5.0 | 0.00 | 0.00 | 0.00 | 97 | 1017.6 |
| 20260505114041 | 48 | 0 | 1.0 | 5.0 | 0.00 | 0.00 | 0.00 | 97 | 1017.6 |
| 20260505113544 | 48 | 209 | 2.0 | 5.0 | 0.00 | 0.00 | 0.00 | 97 | 1017.4 |
| 20260505113050 | 48 | 200 | 1.0 | 4.0 | 0.00 | 0.00 | 0.00 | 97 | 1017.5 |
| 20260505112541 | 48 | 265 | 2.0 | 4.0 | 0.00 | 0.00 | 0.00 | 97 | 1017.5 |
| 20260505112039 | 48 | 279 | 1.0 | 4.0 | 0.00 | 0.00 | 0.00 | 97 | 1017.7 |
| 20260505111549 | 48 | 225 | 1.0 | 3.0 | 0.00 | 0.00 | 0.00 | 97 | 1017.8 |
| 20260505111040 | 48 | 247 | 1.0 | 3.0 | 0.00 | 0.00 | 0.00 | 97 | 1017.8 |
| 20260505110541 | 48 | 236 | 0.0 | 3.0 | 0.00 | 0.00 | 0.00 | 97 | 1018.0 |
| 20260505102038 | 48 | 325 | 0.0 | 2.0 | 0.00 | 0.00 | 0.00 | 96 | 1018.0 |
| 20260505101556 | 48 | 0 | 0.0 | 4.0 | 0.00 | 0.00 | 0.00 | 96 | 1017.8 |
| 20260505101041 | 48 | 190 | 1.0 | 4.0 | 0.00 | 0.00 | 0.00 | 96 | 1017.6 |
| 20260505100542 | 48 | 226 | 1.0 | 4.0 | 0.00 | 0.00 | 0.00 | 96 | 1017.5 |
| 20260505100045 | 48 | 217 | 1.0 | 4.0 | 0.00 | 0.00 | 0.00 | 96 | 1017.6 |
| 20260505095542 | 48 | 61 | 1.0 | 4.0 | 0.00 | 0.00 | 0.00 | 96 | 1017.8 |
| 20260505095042 | 48 | 178 | 1.0 | 4.0 | 0.00 | 0.00 | 0.00 | 96 | 1017.6 |
| 20260505094545 | 48 | 239 | 1.0 | 3.0 | 0.00 | 0.00 | 0.00 | 96 | 1017.8 |
| 20260505094042 | 48 | 0 | 1.0 | 3.0 | 0.00 | 0.00 | 0.00 | 96 | 1018.0 |
| 20260505093540 | 48 | 239 | 0.0 | 4.0 | 0.00 | 0.00 | 0.00 | 96 | 1018.0 |
| 20260505093050 | 48 | 165 | 1.0 | 4.0 | 0.00 | 0.00 | 0.00 | 96 | 1017.9 |
| 20260505092539 | 48 | 225 | 1.0 | 7.0 | 0.00 | 0.00 | 0.00 | 96 | 1018.2 |
| 20260505092041 | 48 | 128 | 1.0 | 7.0 | 0.00 | 0.00 | 0.00 | 96 | 1018.2 |
| 20260505091550 | 48 | 219 | 2.0 | 6.0 | 0.00 | 0.00 | 0.00 | 96 | 1017.9 |
| 20260505091038 | 48 | 286 | 3.0 | 6.0 | 0.00 | 0.00 | 0.00 | 96 | 1018.1 |
| 20260505090541 | 48 | 216 | 2.0 | 6.0 | 0.00 | 0.00 | 0.00 | 96 | 1018.1 |
| 20260505090059 | 48 | 93 | 0.0 | 6.0 | 0.00 | 0.00 | 0.00 | 96 | 1018.3 |
| 20260505085543 | 48 | 232 | 1.0 | 6.0 | 0.00 | 0.00 | 0.00 | 96 | 1018.4 |
| 20260505085042 | 48 | 221 | 1.0 | 7.0 | 0.00 | 0.00 | 0.00 | 96 | 1018.3 |
| 20260505084551 | 48 | 219 | 2.0 | 7.0 | 0.00 | 0.00 | 0.00 | 96 | 1018.5 |
| 20260505084041 | 48 | 221 | 3.0 | 7.0 | 0.00 | 0.00 | 0.00 | 96 | 1018.3 |
| 20260505083541 | 48 | 221 | 1.0 | 5.0 | 0.00 | 0.00 | 0.00 | 96 | 1018.4 |
| 20260505083056 | 48 | 9 | 2.0 | 5.0 | 0.00 | 0.00 | 0.00 | 96 | 1018.4 |
| 20260505082542 | 48 | 242 | 2.0 | 5.0 | 0.00 | 0.00 | 0.00 | 96 | 1018.2 |
| 20260505082042 | 48 | 221 | 2.0 | 4.0 | 0.00 | 0.00 | 0.00 | 96 | 1018.2 |
| 20260505081550 | 48 | 196 | 3.0 | 5.0 | 0.00 | 0.00 | 0.00 | 96 | 1018.2 |
| 20260505081045 | 48 | 209 | 2.0 | 5.0 | 0.00 | 0.00 | 0.00 | 96 | 1018.3 |
| 20260505080541 | 48 | 225 | 1.0 | 5.0 | 0.00 | 0.00 | 0.00 | 96 | 1018.3 |
| 20260505080049 | 48 | 250 | 2.0 | 5.0 | 0.00 | 0.00 | 0.00 | 96 | 1018.2 |
| 20260505075542 | 48 | 208 | 2.0 | 4.0 | 0.00 | 0.00 | 0.00 | 96 | 1018.4 |
| 20260505075039 | 48 | 205 | 1.0 | 5.0 | 0.00 | 0.00 | 0.00 | 96 | 1018.5 |
| 20260505074552 | 48 | 225 | 2.0 | 5.0 | 0.00 | 0.00 | 0.00 | 96 | 1018.5 |
| 20260505074038 | 48 | 265 | 1.0 | 4.0 | 0.00 | 0.00 | 0.00 | 96 | 1018.5 |
| 20260505073545 | 48 | 273 | 1.0 | 5.0 | 0.00 | 0.00 | 0.00 | 96 | 1018.5 |
| 20260505073048 | 48 | 215 | 2.0 | 5.0 | 0.00 | 0.00 | 0.00 | 96 | 1018.4 |
| 20260505072544 | 48 | 229 | 2.0 | 5.0 | 0.00 | 0.00 | 0.00 | 96 | 1018.5 |
| 20260505072042 | 48 | 232 | 1.0 | 3.0 | 0.00 | 0.00 | 0.00 | 96 | 1018.5 |
| 20260505071548 | 48 | 221 | 2.0 | 3.0 | 0.00 | 0.00 | 0.00 | 96 | 1018.6 |
| 20260505071041 | 48 | 221 | 1.0 | 3.0 | 0.00 | 0.00 | 0.00 | 96 | 1018.7 |
| 20260505070543 | 48 | 221 | 1.0 | 2.0 | 0.00 | 0.00 | 0.00 | 96 | 1018.8 |
| 20260505070051 | 47 | 205 | 0.0 | 4.0 | 0.00 | 0.00 | 0.00 | 95 | 1018.7 |
| 20260505065542 | 47 | 22 | 1.0 | 4.0 | 0.00 | 0.00 | 0.00 | 95 | 1018.8 |
| 20260505065041 | 47 | 250 | 1.0 | 6.0 | 0.00 | 0.00 | 0.00 | 95 | 1018.7 |
| 20260505064549 | 47 | 227 | 2.0 | 6.0 | 0.00 | 0.00 | 0.00 | 95 | 1018.5 |
| 20260505064041 | 47 | 282 | 2.0 | 9.0 | 0.00 | 0.00 | 0.00 | 95 | 1018.5 |
| 20260505063541 | 47 | 191 | 4.0 | 10.0 | 0.00 | 0.00 | 0.00 | 95 | 1018.4 |
| 20260505063048 | 47 | 234 | 3.0 | 10.0 | 0.00 | 0.00 | 0.00 | 95 | 1018.3 |
| 20260505062542 | 47 | 250 | 4.0 | 12.0 | 0.00 | 0.00 | 0.00 | 95 | 1018.2 |
| 20260505062042 | 48 | 238 | 4.0 | 12.0 | 0.00 | 0.00 | 0.00 | 95 | 1018.2 |
| 20260505061548 | 48 | 241 | 3.0 | 9.0 | 0.00 | 0.00 | 0.00 | 95 | 1018.1 |
| 20260505061038 | 48 | 238 | 4.0 | 10.0 | 0.00 | 0.00 | 0.00 | 95 | 1018.1 |
| 20260505060543 | 48 | 275 | 3.0 | 10.0 | 0.00 | 0.00 | 0.00 | 95 | 1018.1 |
| 20260505060052 | 48 | 236 | 4.0 | 10.0 | 0.00 | 0.00 | 0.00 | 95 | 1018.2 |
| 20260505055539 | 48 | 226 | 4.0 | 8.0 | 0.00 | 0.00 | 0.00 | 94 | 1018.2 |
| 20260505055043 | 48 | 245 | 3.0 | 7.0 | 0.00 | 0.00 | 0.00 | 94 | 1018.3 |
| 20260505054550 | 48 | 314 | 2.0 | 7.0 | 0.00 | 0.00 | 0.00 | 94 | 1018.3 |
| 20260505054042 | 48 | 210 | 2.0 | 5.0 | 0.00 | 0.00 | 0.00 | 94 | 1018.3 |
| 20260505053542 | 48 | 217 | 2.0 | 6.0 | 0.00 | 0.00 | 0.00 | 94 | 1018.4 |
| 20260505053059 | 48 | 233 | 2.0 | 6.0 | 0.00 | 0.00 | 0.00 | 94 | 1018.3 |
| 20260505052541 | 48 | 254 | 2.0 | 4.0 | 0.00 | 0.00 | 0.00 | 94 | 1018.3 |
| 20260505052042 | 48 | 259 | 2.0 | 5.0 | 0.00 | 0.00 | 0.00 | 93 | 1018.4 |
| 20260505051549 | 49 | 221 | 2.0 | 5.0 | 0.00 | 0.00 | 0.00 | 93 | 1018.3 |
| 20260505051043 | 49 | 219 | 2.0 | 7.0 | 0.00 | 0.00 | 0.00 | 93 | 1018.3 |
| 20260505050539 | 49 | 242 | 2.0 | 8.0 | 0.00 | 0.00 | 0.00 | 93 | 1018.4 |
| 20260505041550 | 50 | 265 | 3.0 | 9.0 | 0.00 | 0.00 | 0.00 | 92 | 1018.9 |
| 20260505041044 | 50 | 315 | 2.0 | 6.0 | 0.00 | 0.00 | 0.00 | 92 | 1018.8 |
| 20260505040544 | 50 | 245 | 2.0 | 7.0 | 0.00 | 0.00 | 0.00 | 92 | 1018.7 |
| 20260505040050 | 50 | 301 | 2.0 | 7.0 | 0.00 | 0.00 | 0.00 | 91 | 1018.7 |
| 20260505035541 | 50 | 232 | 2.0 | 7.0 | 0.00 | 0.00 | 0.00 | 91 | 1018.5 |
| 20260505035046 | 51 | 221 | 2.0 | 6.0 | 0.00 | 0.00 | 0.00 | 91 | 1018.3 |
| 20260505034546 | 51 | 215 | 1.0 | 5.0 | 0.00 | 0.00 | 0.00 | 90 | 1018.3 |
| 20260505034039 | 51 | 257 | 2.0 | 5.0 | 0.00 | 0.00 | 0.00 | 90 | 1018.2 |
| 20260505033540 | 51 | 255 | 2.0 | 6.0 | 0.00 | 0.00 | 0.00 | 90 | 1018.1 |
| 20260505033108 | 51 | 209 | 1.0 | 7.0 | 0.00 | 0.00 | 0.00 | 90 | 1018.0 |
| 20260505032537 | 51 | 229 | 1.0 | 7.0 | 0.00 | 0.00 | 0.00 | 90 | 1017.9 |
| 20260505032039 | 51 | 196 | 2.0 | 7.0 | 0.00 | 0.00 | 0.00 | 89 | 1017.9 |
| 20260505031550 | 51 | 287 | 2.0 | 8.0 | 0.00 | 0.00 | 0.00 | 89 | 1017.9 |
| 20260505031042 | 51 | 0 | 2.0 | 8.0 | 0.00 | 0.00 | 0.00 | 88 | 1017.8 |
| 20260505030539 | 51 | 257 | 3.0 | 8.0 | 0.00 | 0.00 | 0.00 | 88 | 1017.8 |
| 20260505030052 | 51 | 229 | 3.0 | 8.0 | 0.00 | 0.00 | 0.00 | 88 | 1017.9 |
| 20260505025538 | 51 | 227 | 2.0 | 8.0 | 0.00 | 0.00 | 0.00 | 88 | 1017.9 |
| 20260505025040 | 51 | 254 | 2.0 | 7.0 | 0.00 | 0.00 | 0.00 | 88 | 1017.9 |
| 20260505024546 | 51 | 142 | 2.0 | 10.0 | 0.00 | 0.00 | 0.00 | 87 | 1017.7 |
| 20260505024041 | 51 | 227 | 3.0 | 11.0 | 0.00 | 0.00 | 0.00 | 87 | 1017.8 |
| 20260505023538 | 51 | 237 | 3.0 | 11.0 | 0.00 | 0.00 | 0.00 | 88 | 1017.9 |
| 20260505023059 | 51 | 242 | 3.0 | 10.0 | 0.00 | 0.00 | 0.00 | 87 | 1017.9 |
| 20260505022539 | 51 | 249 | 2.0 | 10.0 | 0.00 | 0.00 | 0.00 | 87 | 1018.0 |
| 20260505022042 | 51 | 273 | 3.0 | 11.0 | 0.00 | 0.00 | 0.00 | 88 | 1017.8 |
| 20260505021553 | 52 | 239 | 3.0 | 11.0 | 0.00 | 0.00 | 0.00 | 88 | 1017.9 |
| 20260505021041 | 52 | 195 | 3.0 | 11.0 | 0.00 | 0.00 | 0.00 | 90 | 1017.8 |
| 20260505020538 | 52 | 237 | 3.0 | 7.0 | 0.00 | 0.00 | 0.00 | 91 | 1017.9 |
| 20260505020055 | 52 | 207 | 3.0 | 9.0 | 0.00 | 0.00 | 0.00 | 91 | 1017.8 |
| 20260505015538 | 52 | 230 | 3.0 | 9.0 | 0.00 | 0.00 | 0.00 | 91 | 1017.8 |
| 20260505015042 | 52 | 241 | 3.0 | 8.0 | 0.00 | 0.00 | 0.00 | 91 | 1017.9 |
| 20260505014549 | 52 | 226 | 3.0 | 8.0 | 0.00 | 0.00 | 0.00 | 91 | 1018.1 |
| 20260505014044 | 52 | 287 | 3.0 | 10.0 | 0.00 | 0.00 | 0.00 | 91 | 1018.2 |
| 20260505013539 | 52 | 201 | 3.0 | 10.0 | 0.00 | 0.00 | 0.00 | 91 | 1018.3 |
| 20260505013052 | 52 | 205 | 3.0 | 10.0 | 0.00 | 0.00 | 0.00 | 91 | 1018.3 |
| 20260505012540 | 52 | 279 | 4.0 | 10.0 | 0.00 | 0.00 | 0.00 | 91 | 1018.3 |
| 20260505012043 | 52 | 233 | 4.0 | 10.0 | 0.00 | 0.00 | 0.00 | 91 | 1018.3 |
| 20260505011558 | 52 | 209 | 4.0 | 11.0 | 0.00 | 0.00 | 0.00 | 91 | 1018.3 |
| 20260505011041 | 52 | 247 | 5.0 | 12.0 | 0.00 | 0.00 | 0.00 | 91 | 1018.3 |
| 20260505010540 | 52 | 271 | 4.0 | 12.0 | 0.00 | 0.00 | 0.00 | 90 | 1018.4 |
| 20260505010049 | 52 | 221 | 4.0 | 10.0 | 0.00 | 0.00 | 0.00 | 90 | 1018.4 |
| 20260505005540 | 52 | 296 | 3.0 | 12.0 | 0.00 | 0.00 | 0.00 | 90 | 1018.4 |
| 20260505005042 | 52 | 230 | 5.0 | 13.0 | 0.00 | 0.00 | 0.00 | 90 | 1018.4 |
| 20260505004558 | 52 | 241 | 5.0 | 13.0 | 0.00 | 0.00 | 0.00 | 89 | 1018.5 |
| 20260505004041 | 52 | 221 | 4.0 | 10.0 | 0.00 | 0.00 | 0.00 | 89 | 1018.5 |
| 20260505003538 | 52 | 287 | 5.0 | 10.0 | 0.00 | 0.00 | 0.00 | 88 | 1018.5 |
| 20260505003049 | 53 | 284 | 4.0 | 10.0 | 0.00 | 0.00 | 0.00 | 88 | 1018.5 |
| 20260505002542 | 53 | 271 | 4.0 | 10.0 | 0.00 | 0.00 | 0.00 | 88 | 1018.5 |
| 20260505002039 | 53 | 309 | 4.0 | 10.0 | 0.00 | 0.00 | 0.00 | 88 | 1018.5 |
| 20260505001550 | 53 | 192 | 4.0 | 10.0 | 0.00 | 0.00 | 0.00 | 88 | 1018.7 |
| 20260505001038 | 53 | 235 | 4.0 | 10.0 | 0.00 | 0.00 | 0.00 | 88 | 1018.6 |
| 20260505000541 | 53 | 265 | 5.0 | 11.0 | 0.00 | 0.00 | 0.00 | 87 | 1018.5 |
| 20260505000051 | 53 | 215 | 4.0 | 11.0 | 0.00 | 0.00 | 0.00 | 86 | 1018.5 |
| 20260504235541 | 53 | 298 | 4.0 | 10.0 | 0.00 | 0.00 | 0.00 | 86 | 1018.5 |
| 20260504235044 | 53 | 245 | 4.0 | 10.0 | 0.00 | 0.00 | 0.00 | 86 | 1018.5 |
| 20260504234613 | 53 | 215 | 4.0 | 13.0 | 0.00 | 0.00 | 0.00 | 86 | 1018.4 |
| 20260504234038 | 53 | 208 | 4.0 | 13.0 | 0.00 | 0.00 | 0.00 | 86 | 1018.5 |
| 20260504233538 | 53 | 212 | 4.0 | 13.0 | 0.00 | 0.00 | 0.00 | 85 | 1018.5 |
| 20260504233051 | 54 | 267 | 4.0 | 10.0 | 0.00 | 0.00 | 0.00 | 86 | 1018.4 |
| 20260504232539 | 54 | 225 | 5.0 | 10.0 | 0.00 | 0.00 | 0.00 | 85 | 1018.3 |
| 20260504232041 | 54 | 237 | 5.0 | 11.0 | 0.00 | 0.00 | 0.00 | 85 | 1018.4 |
| 20260504231554 | 54 | 281 | 5.0 | 11.0 | 0.00 | 0.00 | 0.00 | 85 | 1018.3 |
| 20260504231038 | 54 | 250 | 4.0 | 11.0 | 0.00 | 0.00 | 0.00 | 85 | 1018.5 |
| 20260504230538 | 54 | 51 | 5.0 | 11.0 | 0.00 | 0.00 | 0.00 | 84 | 1018.5 |
| 20260504230046 | 54 | 241 | 4.0 | 10.0 | 0.00 | 0.00 | 0.00 | 84 | 1018.4 |
| 20260504225541 | 54 | 221 | 5.0 | 10.0 | 0.00 | 0.00 | 0.00 | 84 | 1018.5 |
| 20260504225040 | 55 | 193 | 3.0 | 10.0 | 0.00 | 0.00 | 0.00 | 85 | 1018.4 |
| 20260504224555 | 55 | 230 | 5.0 | 10.0 | 0.00 | 0.00 | 0.00 | 85 | 1018.4 |
| 20260504224041 | 55 | 265 | 4.0 | 9.0 | 0.00 | 0.00 | 0.00 | 84 | 1018.4 |
| 20260504223541 | 55 | 202 | 5.0 | 11.0 | 0.00 | 0.00 | 0.00 | 84 | 1018.6 |
| 20260504223049 | 55 | 277 | 3.0 | 12.0 | 0.00 | 0.00 | 0.00 | 84 | 1018.6 |
| 20260504222539 | 55 | 171 | 6.0 | 12.0 | 0.00 | 0.00 | 0.00 | 83 | 1018.6 |
| 20260504222041 | 55 | 265 | 5.0 | 10.0 | 0.00 | 0.00 | 0.00 | 83 | 1018.6 |
| 20260504221600 | 55 | 196 | 3.0 | 9.0 | 0.00 | 0.00 | 0.00 | 82 | 1018.8 |
| 20260504221039 | 55 | 193 | 3.0 | 10.0 | 0.00 | 0.00 | 0.00 | 82 | 1018.7 |
| 20260504220540 | 55 | 261 | 4.0 | 11.0 | 0.00 | 0.00 | 0.00 | 80 | 1018.7 |
| 20260504220053 | 56 | 268 | 5.0 | 11.0 | 0.00 | 0.00 | 0.00 | 79 | 1018.7 |
| 20260504215542 | 56 | 214 | 3.0 | 11.0 | 0.00 | 0.00 | 0.00 | 79 | 1018.7 |
| 20260504215042 | 57 | 214 | 4.0 | 11.0 | 0.00 | 0.00 | 0.00 | 79 | 1018.7 |
| 20260504214551 | 56 | 207 | 4.0 | 11.0 | 0.00 | 0.00 | 0.00 | 80 | 1018.7 |
| 20260504214040 | 56 | 212 | 4.0 | 12.0 | 0.00 | 0.00 | 0.00 | 82 | 1018.8 |
| 20260504213539 | 55 | 223 | 4.0 | 12.0 | 0.00 | 0.00 | 0.00 | 81 | 1018.7 |
| 20260504213058 | 55 | 265 | 5.0 | 12.0 | 0.00 | 0.00 | 0.00 | 81 | 1018.6 |
| 20260504212539 | 56 | 242 | 6.0 | 13.0 | 0.00 | 0.00 | 0.00 | 81 | 1018.7 |
| 20260504212042 | 56 | 332 | 5.0 | 13.0 | 0.00 | 0.00 | 0.00 | 82 | 1018.6 |
| 20260504211549 | 55 | 221 | 6.0 | 11.0 | 0.00 | 0.00 | 0.00 | 82 | 1018.6 |
| 20260504211039 | 55 | 80 | 6.0 | 11.0 | 0.00 | 0.00 | 0.00 | 82 | 1018.6 |
| 20260504210541 | 55 | 270 | 5.0 | 11.0 | 0.00 | 0.00 | 0.00 | 82 | 1018.6 |
| 20260504210057 | 56 | 270 | 5.0 | 12.0 | 0.00 | 0.00 | 0.00 | 82 | 1018.8 |
| 20260504205544 | 56 | 219 | 5.0 | 12.0 | 0.00 | 0.00 | 0.00 | 81 | 1018.7 |
| 20260504205041 | 56 | 238 | 5.0 | 12.0 | 0.00 | 0.00 | 0.00 | 81 | 1018.7 |
| 20260504204627 | 56 | 266 | 5.0 | 12.0 | 0.00 | 0.00 | 0.00 | 81 | 1018.7 |
| 20260504204040 | 56 | 261 | 5.0 | 11.0 | 0.00 | 0.00 | 0.00 | 78 | 1018.7 |
| 20260504203547 | 55 | 273 | 4.0 | 9.0 | 0.00 | 0.00 | 0.00 | 80 | 1018.8 |
| 20260504203051 | 55 | 248 | 4.0 | 9.0 | 0.00 | 0.00 | 0.00 | 80 | 1018.8 |
| 20260504202541 | 55 | 225 | 3.0 | 9.0 | 0.00 | 0.00 | 0.00 | 83 | 1018.8 |
| 20260504202043 | 55 | 219 | 5.0 | 10.0 | 0.00 | 0.00 | 0.00 | 83 | 1018.7 |
| 20260504201548 | 54 | 210 | 4.0 | 11.0 | 0.00 | 0.00 | 0.00 | 83 | 1018.8 |
| 20260504201043 | 54 | 250 | 3.0 | 11.0 | 0.00 | 0.00 | 0.00 | 83 | 1018.6 |
| 20260504200542 | 54 | 212 | 4.0 | 10.0 | 0.00 | 0.00 | 0.00 | 84 | 1018.7 |
| 20260504200057 | 54 | 239 | 3.0 | 8.0 | 0.00 | 0.00 | 0.00 | 83 | 1018.7 |
| 20260504195542 | 54 | 209 | 3.0 | 13.0 | 0.00 | 0.00 | 0.00 | 83 | 1018.9 |
| 20260504195046 | 54 | 211 | 4.0 | 13.0 | 0.00 | 0.00 | 0.00 | 82 | 1018.9 |
| 20260504194556 | 55 | 238 | 4.0 | 10.0 | 0.00 | 0.00 | 0.00 | 82 | 1018.8 |
| 20260504194043 | 55 | 193 | 3.0 | 9.0 | 0.00 | 0.00 | 0.00 | 84 | 1018.9 |
| 20260504193542 | 55 | 225 | 3.0 | 9.0 | 0.00 | 0.00 | 0.00 | 84 | 1018.9 |
| 20260504193053 | 55 | 239 | 3.0 | 10.0 | 0.00 | 0.00 | 0.00 | 84 | 1018.8 |
| 20260504192541 | 55 | 248 | 4.0 | 11.0 | 0.00 | 0.00 | 0.00 | 84 | 1018.7 |
| 20260504192043 | 55 | 214 | 5.0 | 11.0 | 0.00 | 0.00 | 0.00 | 83 | 1018.7 |
| 20260504191552 | 55 | 219 | 3.0 | 10.0 | 0.00 | 0.00 | 0.00 | 82 | 1018.8 |
| 20260504191040 | 55 | 316 | 5.0 | 10.0 | 0.00 | 0.00 | 0.00 | 81 | 1018.7 |
| 20260504190544 | 55 | 235 | 3.0 | 10.0 | 0.00 | 0.00 | 0.00 | 81 | 1018.9 |
| 20260504190059 | 55 | 219 | 4.0 | 10.0 | 0.00 | 0.00 | 0.00 | 81 | 1019.0 |
| 20260504185540 | 55 | 237 | 5.0 | 12.0 | 0.00 | 0.00 | 0.00 | 81 | 1018.9 |
| 20260504185043 | 56 | 267 | 3.0 | 12.0 | 0.00 | 0.00 | 0.00 | 80 | 1018.9 |
| 20260504184601 | 56 | 252 | 4.0 | 11.0 | 0.00 | 0.00 | 0.00 | 79 | 1018.8 |
| 20260504184043 | 56 | 252 | 6.0 | 11.0 | 0.00 | 0.00 | 0.00 | 78 | 1018.8 |
| 20260504183541 | 56 | 262 | 4.0 | 10.0 | 0.00 | 0.00 | 0.00 | 79 | 1018.9 |
| 20260504183057 | 56 | 203 | 5.0 | 10.0 | 0.00 | 0.00 | 0.00 | 78 | 1018.8 |
| 20260504182546 | 55 | 237 | 3.0 | 10.0 | 0.00 | 0.00 | 0.00 | 79 | 1019.1 |
| 20260504182040 | 55 | 219 | 3.0 | 10.0 | 0.00 | 0.00 | 0.00 | 81 | 1018.9 |
| 20260504181549 | 55 | 232 | 4.0 | 11.0 | 0.00 | 0.00 | 0.00 | 81 | 1018.9 |
| 20260504181041 | 55 | 292 | 5.0 | 11.0 | 0.00 | 0.00 | 0.00 | 82 | 1018.8 |
| 20260504180542 | 54 | 250 | 2.0 | 8.0 | 0.00 | 0.00 | 0.00 | 84 | 1018.7 |
| 20260504180048 | 54 | 178 | 3.0 | 7.0 | 0.00 | 0.00 | 0.00 | 83 | 1018.6 |
| 20260504175544 | 53 | 242 | 3.0 | 7.0 | 0.00 | 0.00 | 0.00 | 84 | 1018.8 |
| 20260504175042 | 53 | 217 | 2.0 | 8.0 | 0.00 | 0.00 | 0.00 | 85 | 1018.9 |
| 20260504174551 | 53 | 281 | 3.0 | 8.0 | 0.00 | 0.00 | 0.00 | 86 | 1018.8 |
| 20260504174043 | 53 | 212 | 3.0 | 11.0 | 0.00 | 0.00 | 0.00 | 87 | 1018.7 |
| 20260504173541 | 53 | 292 | 3.0 | 11.0 | 0.00 | 0.00 | 0.00 | 87 | 1018.6 |